Tracking 17925 objects as of 22-January-2017
HD Live streaming from Space Station
objects crossing your sky now

FENGYUN 2B

Track FENGYUN 2B now!
FENGYUN 2B is classified as:


NORAD ID: 26382
Int'l Code: 2000-032A
Perigee: 35,822.1 km
Apogee: 35,877.9 km
Inclination: 9.7 °
Period: 1,439.0 minutes
Semi major axis: 42220 km
RCS: 15.8489 m2 (large)
Launch date: June 25, 2000
Source: People's Republic of China (PRC)
Launch site: Xichang Space Center, China (XSC)

Scanning radiometer, a cloud mapper, water vapor scanner to provide timely weather data; provides hoursly full-disk images of Earth in visible and infrared wavelengths.
Your satellite tracking list
Your tracking list is empty





NASA's NSSDC Master Catalog

Two Line Element Set (TLE):
1 26382U 00032A   17020.85865872 -.00000267 +00000-0 +00000-0 0  9991
2 26382 009.7459 041.6137 0006611 227.9760 257.6022 01.00071482060559
Source of the keplerian elements: AFSPC